Location: Tauranga
(37.6860°S, 176.1670°E)
Time: 09:46:03
(UTC+13:00)

Aureole 3 Rocket - Pass Details

Date: 24 January 2019
Orbit: 399 x 1742 km, 82.5° (Epoch: 15 February)

Event Time Altitude Azimuth Distance (km) Brightness Sun altitude
Rises 21:43:29 0° 189° (S) 2,477 6.9 -12.5°
Reaches altitude 10° 21:45:21 10° 189° (S) 1,677 6.0 -12.8°
Maximum altitude 21:48:55 82° 277° (W) 578 2.9 -13.4°
Drops below altitude 10° 21:53:35 10° 3° (N) 2,180 5.5 -14.1°
Enters shadow 21:53:49 - 3° (N) 2,272 5.6 -14.1°
